Iron Mountain, MI

4:00 AM CDT on July 21, 2017 (GMT -0500)
Ford

Weather History for KIMT - November, 2014

Change the Weather History Date:

Thursday, November 20, 2014

  Actual Average Record
Temperature  
Mean Temperature 12 °F -  
Max Temperature 16 °F 39 °F 60 °F (1953)
Min Temperature 3 °F 23 °F 3 °F (1964)
Degree Days  
Heating Degree Days 54    
Moisture  
Dew Point 3 °F    
Average Humidity 70    
Maximum Humidity 87    
Minimum Humidity 52    
Precipitation  
Precipitation 0.00 in - - ()
Sea Level Pressure  
Sea Level Pressure 29.96 in    
Wind  
Wind Speed 9 mph (WNW)    
Max Wind Speed 17 mph    
Max Gust Speed 24 mph    
Visibility 7 miles    
Events Snow    
Averages and records for this station are not official NWS values.
T = Trace of Precipitation, MM = Missing Value Source: NWS Daily Summary

Daily Weather History Graph

Daily Weather History Graph

Search for Another Location

Airport or City:

Trip Planner

Search our weather history database for the weather conditions in past years. The results will help you decide how hot, cold, wet, or windy it might be!

Date:

Astronomy

Nov. 20, 2014 Rise Set
Actual Time 6:59 AM CST 4:16 PM CST
Civil Twilight 6:26 AM CST 4:49 PM CST
Nautical Twilight 5:49 AM CST 5:25 PM CST
Astronomical Twilight 5:14 AM CST 6:01 PM CST
Moon 4:47 AM CST (11/20) 3:25 PM CST (11/20)
Length of Visible Light 10h 22m
Length of Day
9h 17m
Waning Crescent, 4% of the Moon is Illuminated
Nov 20
Waning Crescent
Nov 22
New
Nov 29
First Quarter
Dec 6
Full
Dec 14
Last Quarter

Hourly Weather History & Observations

Time (CST) Temp. Windchill Dew Point Humidity Pressure Visibility Wind Dir Wind Speed Gust Speed Precip Events Conditions
12:54 AM 12.9 °F 2.6 °F 6.1 °F 74% 29.77 in 10.0 mi West 6.9 mph - N/A   Mostly Cloudy
1:54 AM 12.9 °F -1.6 °F 5.0 °F 71% 29.78 in 7.0 mi WNW 12.7 mph - 0.00 in Snow Light Snow
2:02 AM 12.9 °F -0.2 °F 5.0 °F 71% 29.71 in 7.0 mi West 10.4 mph - 0.00 in Snow Light Snow
2:54 AM 12.0 °F -0.4 °F 1.9 °F 64% 29.79 in 10.0 mi West 9.2 mph - 0.00 in   Partly Cloudy
3:54 AM 10.9 °F -0.8 °F 1.0 °F 64% 29.80 in 10.0 mi West 8.1 mph - N/A   Clear
4:54 AM 9.0 °F -2.2 °F 1.0 °F 70% 29.81 in 10.0 mi West 6.9 mph - N/A   Clear
5:54 AM 9.0 °F -0.9 °F -0.0 °F 67% 29.83 in 10.0 mi West 5.8 mph - N/A   Mostly Cloudy
6:54 AM 9.0 °F -3.2 °F -0.9 °F 64% 29.85 in 10.0 mi WNW 8.1 mph - N/A   Partly Cloudy
7:54 AM 9.0 °F -2.2 °F -0.0 °F 67% 29.87 in 10.0 mi West 6.9 mph - N/A   Clear
8:54 AM 10.9 °F -0.8 °F 1.0 °F 64% 29.89 in 10.0 mi West 8.1 mph - N/A   Clear
9:54 AM 12.9 °F -2.2 °F 1.0 °F 59% 29.91 in 10.0 mi West 13.8 mph - N/A   Mostly Cloudy
10:54 AM 15.1 °F 1.8 °F 1.9 °F 56% 29.92 in 10.0 mi WNW 11.5 mph - N/A   Mostly Cloudy
11:54 AM 15.1 °F 0.5 °F 1.9 °F 56% 29.92 in 10.0 mi West 13.8 mph 21.9 mph N/A   Overcast
12:54 PM 16.0 °F 2.9 °F 1.0 °F 52% 29.94 in 10.0 mi WNW 11.5 mph - N/A   Overcast
1:54 PM 14.0 °F -1.4 °F -0.9 °F 52% 29.96 in 10.0 mi NW 15.0 mph 21.9 mph N/A   Scattered Clouds
2:29 PM 12.9 °F -3.9 °F 5.0 °F 71% 29.91 in 2.5 mi NW 17.3 mph - 0.00 in Snow Light Snow
2:47 PM 12.9 °F -1.6 °F 6.1 °F 74% 29.93 in 1.0 mi NW 12.7 mph - 0.00 in Snow Light Snow
2:54 PM 12.0 °F -4.0 °F 5.0 °F 73% 30.01 in 0.8 mi NW 15.0 mph 24.2 mph 0.00 in Snow Light Snow
3:01 PM 12.0 °F -2.7 °F 5.0 °F 73% 29.94 in 1.0 mi NW 12.7 mph - 0.00 in Snow Light Snow
3:14 PM 12.0 °F -2.7 °F 3.9 °F 70% 29.94 in 4.0 mi NW 12.7 mph - 0.00 in Snow Light Snow
3:47 PM 12.0 °F -1.3 °F 5.0 °F 73% 29.96 in 1.8 mi NW 10.4 mph - 0.00 in Snow Light Snow
3:54 PM 10.9 °F -1.8 °F 5.0 °F 77% 30.05 in 3.0 mi NW 9.2 mph - 0.00 in Snow Light Snow
4:12 PM 10.9 °F -2.6 °F 5.0 °F 77% 29.98 in 1.5 mi NW 10.4 mph - 0.00 in Snow Light Snow
4:25 PM 10.9 °F -2.6 °F 5.0 °F 77% 29.99 in 3.0 mi NW 10.4 mph - 0.00 in Snow Light Snow
4:36 PM 10.9 °F -0.8 °F 5.0 °F 77% 29.99 in 2.0 mi NW 8.1 mph - 0.00 in Snow Light Snow
4:54 PM 10.9 °F 1.4 °F 6.1 °F 81% 30.09 in 3.0 mi NW 5.8 mph - 0.00 in Snow Light Snow
5:01 PM 10.9 °F 2.9 °F 6.1 °F 81% 30.01 in 7.0 mi NNW 4.6 mph - 0.00 in Snow Light Snow
5:10 PM 10.9 °F -0.8 °F 6.1 °F 81% 30.01 in 4.0 mi NW 8.1 mph - 0.00 in Snow Light Snow
5:18 PM 10.9 °F 1.4 °F 5.0 °F 77% 30.01 in 4.0 mi NW 5.8 mph - 0.00 in Snow Light Snow
6:54 PM 8.1 °F -3.2 °F -2.0 °F 64% 30.14 in 10.0 mi West 6.9 mph - N/A   Scattered Clouds
7:54 PM 9.0 °F -3.2 °F -0.0 °F 67% 30.14 in 10.0 mi WNW 8.1 mph - N/A   Overcast
8:54 PM 8.1 °F -4.3 °F 1.0 °F 73% 30.16 in 10.0 mi West 8.1 mph - N/A   Mostly Cloudy
9:54 PM 8.1 °F -0.5 °F 1.0 °F 73% 30.18 in 10.0 mi WNW 4.6 mph - N/A   Mostly Cloudy
10:54 PM 7.0 °F - 1.9 °F 80% 30.20 in 10.0 mi Calm Calm - N/A   Overcast
11:54 PM 3.0 °F - -0.0 °F 87% 30.23 in 10.0 mi Calm Calm - N/A   Scattered Clouds